• în România
  • Lista ţărilor
  • Pe 7 zile
  • Temperatura apei
  • Hartă satelitară
  • Meteo pe hartă
  • Widget-uri
  • user-avatar
    Intrare

    Meteo pe oră la Stafford

    Astăzi, 27 Mai, Duminică

    Timp Temperatura Precipitaţii Vânt Presiune Umiditate
    00:00 +11°C° 0,4 mm 6 m/s 757 mmHg 78%
    01:00 +11°C° 0,4 mm 6 m/s 756 mmHg 81%
    02:00 +11°C° 0,4 mm 6 m/s 756 mmHg 85%
    03:00 +12°C° 0,4 mm 5 m/s 755 mmHg 88%
    04:00 +13°C° 0,5 mm 5 m/s 755 mmHg 88%
    05:00 +13°C° 0,5 mm 6 m/s 755 mmHg 89%
    06:00 +14°C° 0,5 mm 6 m/s 755 mmHg 89%
    07:00 +16°C° 0,6 mm 6 m/s 755 mmHg 87%
    08:00 +17°C° 0,6 mm 6 m/s 755 mmHg 85%
    09:00 +20°C° 0,6 mm 6 m/s 754 mmHg 83%
    10:00 +21°C° 0,3 mm 6 m/s 754 mmHg 81%
    11:00 +22°C° 0,3 mm 6 m/s 754 mmHg 78%
    12:00 +23°C° 0,3 mm 6 m/s 754 mmHg 76%
    13:00 +23°C° 1,4 mm 6 m/s 754 mmHg 79%
    14:00 +22°C° 1,4 mm 5 m/s 754 mmHg 81%
    15:00 +21°C° 1,4 mm 5 m/s 754 mmHg 84%
    16:00 +21°C° 0,3 mm 5 m/s 754 mmHg 85%
    17:00 +21°C° 0,3 mm 5 m/s 754 mmHg 85%
    18:00 +20°C° 0,3 mm 5 m/s 754 mmHg 86%
    19:00 +19°C° 0,2 mm 4 m/s 754 mmHg 88%
    20:00 +18°C° 0,2 mm 4 m/s 754 mmHg 90%
    21:00 +15°C° 0,2 mm 4 m/s 754 mmHg 92%
    22:00 +15°C° 0,3 mm 4 m/s 755 mmHg 93%
    23:00 +14°C° 0,3 mm 3 m/s 755 mmHg 93%

    Mâine, 28 Mai, Luni

    Timp Temperatura Precipitaţii Vânt Presiune Umiditate
    00:00 +13°C° 0,3 mm 3 m/s 755 mmHg 94%
    01:00 +13°C° 0 mm 3 m/s 755 mmHg 94%
    02:00 +13°C° 0 mm 3 m/s 755 mmHg 94%
    03:00 +13°C° 0 mm 2 m/s 755 mmHg 94%
    04:00 +14°C° 0 mm 2 m/s 755 mmHg 94%
    05:00 +14°C° 0 mm 2 m/s 755 mmHg 94%
    06:00 +14°C° 0 mm 2 m/s 756 mmHg 93%
    07:00 +14°C° 0 mm 3 m/s 756 mmHg 91%
    08:00 +17°C° 0 mm 3 m/s 756 mmHg 90%
    09:00 +18°C° 0 mm 3 m/s 756 mmHg 88%
    10:00 +19°C° 0 mm 3 m/s 756 mmHg 86%
    11:00 +20°C° 0 mm 3 m/s 756 mmHg 84%
    12:00 +21°C° 0 mm 3 m/s 756 mmHg 82%
    13:00 +21°C° 0,2 mm 3 m/s 756 mmHg 81%
    14:00 +22°C° 0,2 mm 3 m/s 756 mmHg 80%
    15:00 +24°C° 0,2 mm 3 m/s 756 mmHg 79%
    16:00 +22°C° 0,6 mm 4 m/s 756 mmHg 81%
    17:00 +22°C° 0,6 mm 4 m/s 756 mmHg 82%
    18:00 +21°C° 0,6 mm 4 m/s 756 mmHg 84%
    19:00 +20°C° 0,1 mm 4 m/s 757 mmHg 86%
    20:00 +18°C° 0,1 mm 4 m/s 757 mmHg 87%
    21:00 +17°C° 0,1 mm 4 m/s 757 mmHg 89%
    22:00 +15°C° 0 mm 4 m/s 757 mmHg 90%
    23:00 +14°C° 0 mm 4 m/s 757 mmHg 90%

    Poimâine, 29 Mai, Marţi

    Timp Temperatura Precipitaţii Vânt Presiune Umiditate
    00:00 +13°C° 0 mm 4 m/s 757 mmHg 91%
    01:00 +13°C° 0 mm 4 m/s 757 mmHg 92%
    02:00 +12°C° 0 mm 3 m/s 757 mmHg 93%
    03:00 +12°C° 0 mm 3 m/s 757 mmHg 94%
    04:00 +12°C° 0 mm 4 m/s 757 mmHg 94%
    05:00 +13°C° 0 mm 4 m/s 757 mmHg 93%
    06:00 +13°C° 0 mm 4 m/s 757 mmHg 92%
    07:00 +14°C° 0 mm 4 m/s 757 mmHg 89%
    08:00 +16°C° 0 mm 5 m/s 757 mmHg 85%
    09:00 +17°C° 0 mm 5 m/s 757 mmHg 81%
    10:00 +19°C° 0 mm 5 m/s 756 mmHg 79%
    11:00 +19°C° 0 mm 5 m/s 756 mmHg 77%
    12:00 +20°C° 0 mm 6 m/s 756 mmHg 74%
    13:00 +21°C° 0 mm 6 m/s 756 mmHg 73%
    14:00 +21°C° 0 mm 5 m/s 755 mmHg 73%
    15:00 +21°C° 0 mm 5 m/s 755 mmHg 72%
    16:00 +21°C° 0 mm 5 m/s 754 mmHg 74%
    17:00 +21°C° 0 mm 5 m/s 754 mmHg 77%
    18:00 +20°C° 0 mm 4 m/s 754 mmHg 79%
    19:00 +18°C° 0 mm 4 m/s 754 mmHg 82%
    20:00 +17°C° 0 mm 4 m/s 754 mmHg 85%
    21:00 +14°C° 0 mm 4 m/s 754 mmHg 88%
    22:00 +13°C° 0 mm 4 m/s 754 mmHg 89%
    23:00 +12°C° 0 mm 3 m/s 754 mmHg 90%

    30 Mai, Miercuri

    Timp Temperatura Precipitaţii Vânt Presiune Umiditate
    00:00 +11°C° 0 mm 3 m/s 754 mmHg 91%
    01:00 +11°C° 0 mm 3 m/s 753 mmHg 92%
    02:00 +11°C° 0 mm 3 m/s 753 mmHg 92%
    03:00 +11°C° 0 mm 3 m/s 753 mmHg 93%
    04:00 +12°C° 0 mm 3 m/s 752 mmHg 92%
    05:00 +12°C° 0 mm 3 m/s 752 mmHg 91%
    06:00 +13°C° 0 mm 3 m/s 752 mmHg 90%
    07:00 +14°C° 0 mm 3 m/s 752 mmHg 87%
    08:00 +16°C° 0 mm 3 m/s 752 mmHg 83%
    09:00 +17°C° 0 mm 3 m/s 752 mmHg 80%
    10:00 +18°C° 0 mm 3 m/s 752 mmHg 77%
    11:00 +20°C° 0 mm 3 m/s 751 mmHg 74%
    12:00 +21°C° 0 mm 3 m/s 751 mmHg 71%
    13:00 +21°C° 0 mm 3 m/s 751 mmHg 72%
    14:00 +21°C° 0 mm 3 m/s 751 mmHg 73%
    15:00 +21°C° 0 mm 3 m/s 751 mmHg 75%
    16:00 +21°C° 0,1 mm 3 m/s 751 mmHg 77%
    17:00 +20°C° 0,1 mm 3 m/s 751 mmHg 79%
    18:00 +20°C° 0,1 mm 3 m/s 751 mmHg 81%
    19:00 +19°C° 0 mm 2 m/s 751 mmHg 84%
    20:00 +18°C° 0 mm 2 m/s 751 mmHg 87%
    21:00 +16°C° 0 mm 2 m/s 752 mmHg 91%
    22:00 +16°C° 0 mm 2 m/s 752 mmHg 92%
    23:00 +15°C° 0 mm 1 m/s 752 mmHg 93%

    31 Mai, Joi

    Timp Temperatura Precipitaţii Vânt Presiune Umiditate
    00:00 +15°C° 0 mm 1 m/s 752 mmHg 94%
    01:00 +14°C° 0 mm 1 m/s 752 mmHg 94%
    02:00 +14°C° 0 mm 1 m/s 752 mmHg 95%
    03:00 +13°C° 0 mm 1 m/s 752 mmHg 95%
    04:00 +14°C° 0 mm 1 m/s 752 mmHg 94%
    05:00 +14°C° 0 mm 1 m/s 752 mmHg 93%
    06:00 +15°C° 0 mm 1 m/s 752 mmHg 92%
    07:00 +16°C° 0 mm 1 m/s 753 mmHg 89%
    08:00 +17°C° 0 mm 2 m/s 753 mmHg 86%
    09:00 +18°C° 0 mm 2 m/s 753 mmHg 83%
    10:00 +18°C° 0 mm 2 m/s 753 mmHg 81%
    11:00 +19°C° 0 mm 2 m/s 753 mmHg 79%
    12:00 +19°C° 0 mm 2 m/s 753 mmHg 78%
    13:00 +20°C° 0 mm 2 m/s 753 mmHg 78%
    14:00 +20°C° 0 mm 2 m/s 753 mmHg 78%
    15:00 +20°C° 0 mm 2 m/s 753 mmHg 79%
    16:00 +20°C° 0 mm 2 m/s 753 mmHg 80%
    17:00 +20°C° 0 mm 2 m/s 753 mmHg 81%
    18:00 +20°C° 0 mm 2 m/s 753 mmHg 82%
    19:00 +20°C° 0 mm 1 m/s 754 mmHg 86%
    20:00 +19°C° 0 mm 1 m/s 754 mmHg 89%
    21:00 +18°C° 0 mm 1 m/s 754 mmHg 92%
    22:00 +18°C° 0 mm 1 m/s 754 mmHg 93%
    23:00 +16°C° 0 mm 1 m/s 754 mmHg 94%

    1 Iunie, Vineri

    Timp Temperatura Precipitaţii Vânt Presiune Umiditate
    00:00 +16°C° 0 mm 1 m/s 755 mmHg 95%
    01:00 +16°C° 0 mm 1 m/s 755 mmHg 95%
    02:00 +15°C° 0 mm 1 m/s 754 mmHg 96%
    03:00 +15°C° 0 mm 1 m/s 754 mmHg 96%
    04:00 +16°C° 0 mm 1 m/s 755 mmHg 95%
    05:00 +16°C° 0 mm 1 m/s 755 mmHg 95%
    06:00 +18°C° 0 mm 1 m/s 755 mmHg 94%
    07:00 +18°C° 0 mm 1 m/s 755 mmHg 92%
    08:00 +18°C° 0 mm 2 m/s 755 mmHg 89%
    09:00 +18°C° 0 mm 2 m/s 755 mmHg 87%
    10:00 +19°C° 0,1 mm 2 m/s 755 mmHg 85%
    11:00 +20°C° 0,1 mm 2 m/s 755 mmHg 82%
    12:00 +20°C° 0,1 mm 2 m/s 755 mmHg 80%
    13:00 +20°C° 0 mm 2 m/s 755 mmHg 79%
    14:00 +21°C° 0 mm 2 m/s 755 mmHg 79%
    15:00 +21°C° 0 mm 3 m/s 755 mmHg 78%
    16:00 +21°C° 0 mm 3 m/s 755 mmHg 80%
    17:00 +20°C° 0 mm 3 m/s 755 mmHg 81%
    18:00 +20°C° 0 mm 2 m/s 755 mmHg 83%
    19:00 +19°C° 0 mm 2 m/s 755 mmHg 85%
    20:00 +18°C° 0 mm 2 m/s 756 mmHg 88%
    21:00 +17°C° 0 mm 2 m/s 756 mmHg 91%
    22:00 +17°C° 0 mm 2 m/s 756 mmHg 92%
    23:00 +16°C° 0 mm 2 m/s 756 mmHg 93%
    Arată mai mult